Theta_e
319 313 311 315 318 323 318 319 304 311 307 300 300 302 300 308 307 305 305 309 304 311 314 320 318 320 315 313 317 318 318 318 318 312 311 332 339 339 344 343 345 345 345 344 347 349 351 350 349 349 349 349 349 347 346 346 348 347 346 347 346 346 345 346 346 346 346 347 346 347 346 346 345 346 345 344 345 345 344 344 344 343 342 341 341 341 340 339 338 337 337 337 336 336 334 333 333
314 311 313 317 323 314 310 317 307 305 305 301 301 304 305 306 307 304 304 306 307 316 319 319 319 320 323 321 323 322 320 322 327 327 330 334 339 339 342 343 345 343 344 344 347 348 349 350 349 349 349 348 348 346 345 346 346 347 346 346 346 345 346 346 345 345 345 346 346 346 346 345 346 345 345 344 343 343 343 343 343 342 342 341 340 340 339 338 337 336 336 335 335 334 333 333 334
312 310 318 321 321 317 316 315 301 303 300 297 302 304 309 304 304 306 307 308 313 320 324 322 322 321 320 321 316 317 314 330 327 331 334 336 333 336 340 343 345 344 344 344 346 346 347 348 349 349 348 348 347 346 345 346 345 346 346 345 347 347 347 346 346 345 345 345 345 346 345 345 345 344 343 343 342 342 342 341 341 340 340 339 339 339 337 337 336 335 334 334 334 333 333 334 334
310 313 316 312 305 313 304 308 304 301 298 300 302 308 307 306 306 308 310 311 311 320 321 320 316 325 320 316 317 325 321 323 329 331 332 332 336 339 340 343 346 345 344 343 344 347 347 348 348 348 348 347 347 346 346 345 345 347 346 345 346 346 345 346 346 345 344 345 345 345 345 344 344 344 343 342 342 342 341 340 340 339 338 338 338 337 336 334 334 333 333 332 333 332 333 334 334
311 318 322 320 306 300 304 302 302 302 297 302 300 307 308 308 308 309 311 311 311 311 318 318 316 325 325 323 326 318 320 330 330 335 335 337 340 340 341 343 344 343 342 343 342 343 346 346 347 347 347 347 347 347 346 346 344 345 346 345 344 345 344 346 345 344 344 344 345 345 345 344 342 342 342 342 341 341 341 340 339 338 338 338 337 335 334 334 333 332 331 331 331 333 333 334 334
313 315 323 321 299 317 307 300 300 300 304 306 304 306 308 309 308 310 311 310 311 312 314 320 314 321 319 321 326 322 329 322 332 334 336 337 339 341 342 343 340 341 342 342 342 343 347 346 345 346 347 347 347 347 347 346 345 344 344 345 344 344 344 344 345 344 344 345 345 344 343 343 342 342 342 342 341 341 339 338 336 336 336 334 334 333 333 332 331 331 331 331 331 333 333 333 334
311 307 313 309 306 310 296 294 294 298 301 307 305 308 309 310 310 310 312 313 315 314 321 319 322 321 317 325 326 330 333 332 333 335 338 339 340 341 341 341 341 340 341 341 342 343 347 344 345 346 347 347 347 347 347 346 345 344 344 344 344 344 344 343 344 345 344 344 343 343 343 343 342 341 341 341 341 339 337 337 337 336 336 335 334 333 333 333 332 332 333 332 332 333 333 333 334
320 310 308 298 295 302 295 295 295 298 300 308 309 308 310 311 310 310 310 312 313 312 318 321 322 319 317 326 320 331 334 334 336 340 339 340 340 340 341 341 340 339 340 341 341 343 346 343 344 345 346 347 346 347 347 345 345 345 345 345 344 344 344 344 343 343 344 343 343 343 342 341 341 340 340 340 339 338 338 337 337 336 335 334 333 332 333 335 335 335 333 330 330 332 332 333 334
312 306 313 302 293 298 295 293 295 300 301 309 309 311 313 312 311 310 310 312 313 316 318 320 322 315 316 322 321 330 332 336 338 340 339 339 338 340 340 340 339 339 339 340 342 344 348 343 343 343 345 346 346 346 346 345 345 345 345 344 345 344 344 344 344 344 344 343 343 343 341 340 340 339 339 339 338 338 338 337 336 334 333 333 332 332 331 334 333 334 333 331 329 332 332 332 333
303 303 297 298 299 291 291 291 292 296 298 307 307 308 310 313 311 312 311 310 311 313 317 322 323 316 321 318 322 328 331 337 339 338 339 339 339 340 340 340 340 339 339 340 341 344 345 345 342 342 343 343 343 345 345 345 345 345 344 343 344 344 343 343 344 343 343 342 342 342 341 341 340 339 339 338 338 337 335 335 334 334 334 333 332 331 330 330 331 331 330 329 328 332 332 332 333
296 305 306 295 291 289 289 290 292 296 298 303 304 306 309 313 312 311 312 311 314 312 320 322 318 317 318 318 323 332 336 338 336 335 338 338 339 339 339 340 339 339 338 340 342 343 344 345 342 339 339 339 340 342 343 344 345 345 344 344 344 344 343 344 344 343 342 341 342 342 341 340 339 338 337 337 337 336 334 334 334 334 333 331 330 330 329 330 328 328 328 329 329 330 332 332 334
294 296 299 290 289 289 290 291 292 295 298 300 301 306 311 312 312 309 311 310 312 313 312 319 313 322 319 319 324 331 335 336 336 338 339 339 339 339 339 339 340 340 340 341 341 340 341 343 343 341 337 337 338 339 341 342 343 344 344 343 344 345 343 343 343 343 341 342 342 341 340 339 338 337 337 338 336 336 335 334 334 333 331 330 330 330 330 330 328 329 330 331 331 331 331 334 336
294 301 294 290 290 292 292 291 292 294 294 296 298 304 309 307 306 309 309 311 311 312 312 319 320 322 312 318 328 332 331 335 337 339 339 338 338 340 339 339 339 340 340 340 339 339 340 340 340 341 340 336 337 338 338 340 342 343 342 342 343 344 344 343 341 341 341 341 341 341 340 339 338 337 338 336 335 335 335 335 334 331 330 330 330 330 329 329 330 331 333 332 332 334 335 336 335
296 299 295 290 293 291 291 291 293 291 292 295 299 303 307 305 307 308 309 307 310 309 319 322 321 323 316 321 325 327 330 337 338 339 339 339 339 339 338 338 339 338 340 339 338 339 339 339 338 339 341 341 341 339 337 337 339 340 339 340 342 343 342 342 342 341 341 341 341 340 340 339 338 337 337 336 335 335 334 332 332 330 331 330 329 330 331 332 334 336 336 335 335 336 337 336 334
297 303 295 292 289 290 292 288 290 290 291 296 303 303 303 305 309 311 307 305 306 316 321 326 325 316 310 316 317 326 330 338 338 339 338 338 338 338 338 338 337 338 339 337 337 337 337 338 337 339 340 339 339 339 341 342 336 337 337 338 340 341 340 339 339 338 338 339 338 338 339 338 338 337 337 334 333 333 332 332 332 332 333 330 331 332 336 336 336 335 336 337 336 337 335 332 330
302 299 295 290 288 289 290 291 292 290 290 297 305 307 303 306 311 308 312 313 310 317 317 314 323 317 320 321 320 320 324 330 339 338 339 336 336 337 337 337 336 337 337 337 337 338 338 338 338 339 338 338 339 339 339 341 338 336 336 337 338 338 338 337 336 335 335 335 335 335 336 337 336 335 335 333 332 331 332 330 333 333 333 333 333 335 335 335 336 337 337 337 336 334 331 330 328
304 301 290 290 286 289 291 290 292 287 295 297 305 306 299 299 310 314 312 313 311 315 316 317 318 319 318 320 317 318 320 324 337 338 335 335 335 334 334 334 335 335 336 336 336 337 338 337 338 338 338 336 338 339 340 340 342 335 336 335 335 335 336 334 333 332 332 331 332 331 333 336 336 334 333 333 333 332 330 330 332 332 334 335 334 334 335 335 336 336 337 336 333 330 327 326 325
301 291 289 286 289 288 292 290 295 297 293 298 302 303 306 300 307 308 311 311 313 315 314 317 318 320 322 320 319 317 317 323 336 334 333 332 332 331 329 331 332 331 333 334 336 336 337 337 338 337 337 337 338 339 339 340 342 339 341 341 340 336 334 333 336 340 337 340 330 334 337 336 335 334 334 332 333 335 334 329 330 332 333 334 335 334 335 336 336 336 336 333 330 327 326 327 324
293 291 292 287 290 292 295 296 298 296 296 297 300 303 303 304 305 308 305 305 311 311 314 316 316 319 321 318 316 314 314 318 325 334 333 330 330 329 329 330 330 331 331 333 334 335 336 336 337 336 337 337 338 339 339 340 341 340 342 341 339 335 337 337 339 339 339 338 338 337 336 336 335 334 333 332 332 327 333 328 329 330 332 333 334 336 335 335 335 335 334 331 328 327 329 328 326
297 292 288 289 295 294 298 296 296 296 296 295 298 300 300 302 305 308 305 305 307 306 308 314 314 317 317 314 313 312 313 313 318 319 330 331 332 330 330 329 329 330 331 332 333 335 336 336 337 336 335 336 337 338 340 340 339 340 340 339 338 338 337 338 339 338 336 336 337 337 336 335 334 332 332 330 331 334 331 325 325 326 327 328 329 333 334 333 333 331 329 327 328 329 328 326 324
295 291 289 291 294 293 294 296 297 297 297 295 296 298 297 305 304 304 304 303 304 305 310 307 310 308 309 309 309 309 310 311 313 315 315 328 330 332 331 330 330 330 332 333 333 334 335 335 335 336 336 336 338 337 338 338 340 338 338 337 338 338 336 337 337 337 337 337 336 335 335 333 332 331 331 331 330 330 331 332 331 332 332 333 328 333 332 332 332 330 329 329 329 327 324 323 322
293 290 294 293 295 292 296 296 296 296 296 295 296 295 296 304 304 303 304 300 298 308 308 308 308 308 306 306 306 307 309 309 310 310 312 310 312 327 331 332 333 333 333 331 331 333 334 335 335 336 337 336 337 338 337 337 338 337 336 335 336 335 335 334 335 335 334 335 334 332 331 331 331 331 330 330 329 328 329 329 329 329 330 330 330 330 331 332 331 330 330 327 323 321 319 317 317
288 292 293 294 294 291 294 295 296 295 295 294 295 297 298 299 298 303 301 303 307 308 309 308 307 307 308 308 306 305 307 307 308 308 309 311 312 308 312 328 330 330 331 331 332 333 334 335 335 335 334 335 336 337 337 336 336 335 335 334 333 333 333 332 331 331 331 331 330 331 328 327 327 328 329 329 327 328 328 327 327 328 328 327 328 329 329 331 329 329 326 321 317 315 313 311 312
292 288 292 292 293 291 294 293 294 294 294 294 297 298 294 297 294 305 299 303 307 306 306 308 308 307 310 308 307 305 304 305 306 307 307 310 308 308 310 310 324 332 332 331 333 333 333 334 334 335 334 335 334 337 334 335 335 334 333 331 332 330 330 332 330 330 330 329 329 328 327 326 326 326 327 327 327 328 328 328 327 326 324 323 325 327 328 329 329 324 317 316 314 312 309 308 309
290 289 292 292 292 292 294 293 293 294 294 297 297 294 295 297 298 302 299 304 305 306 305 307 307 308 307 308 307 306 306 304 305 305 308 308 310 310 310 309 310 322 330 332 333 332 334 334 334 334 334 334 334 335 333 333 333 332 330 330 330 328 330 330 331 330 329 328 327 326 326 325 325 326 326 326 326 326 325 325 325 323 321 320 323 324 327 327 322 318 315 312 312 310 308 307 307
291 290 291 290 290 291 292 293 293 294 294 295 293 293 296 298 303 297 299 304 304 304 305 305 306 305 307 307 307 306 306 304 304 304 306 307 309 312 310 307 308 313 318 329 331 332 334 334 334 333 333 333 333 333 333 330 330 331 330 329 330 327 330 330 329 329 330 328 326 325 327 325 325 325 325 324 324 323 323 322 321 319 318 318 322 324 327 325 317 315 312 311 310 309 307 306 305
290 290 290 288 289 291 293 291 293 295 294 294 291 292 293 301 297 290 302 302 302 303 303 305 304 304 306 307 307 306 306 305 303 303 303 305 308 310 310 309 307 309 310 315 327 333 333 333 332 333 332 332 333 332 330 329 328 329 329 328 327 328 329 328 327 328 328 327 326 325 324 325 325 324 323 323 323 321 320 319 317 316 316 316 321 323 327 323 317 313 310 308 308 307 306 305 304
290 290 289 289 291 292 292 292 294 294 293 293 294 292 296 297 299 293 301 302 302 301 302 303 303 303 304 306 306 307 305 305 304 302 301 303 305 306 309 312 311 309 307 308 308 308 319 332 332 333 331 332 333 332 329 329 326 327 327 326 325 326 328 327 326 326 327 327 326 324 323 322 322 322 322 321 321 319 317 314 312 314 313 313 317 321 318 314 311 309 307 306 305 304 303 303 302
290 288 284 287 288 288 291 291 293 293 292 293 296 291 290 295 293 299 300 302 302 301 301 302 302 302 303 304 305 305 305 306 304 301 302 303 303 301 303 307 310 311 307 306 305 308 311 330 330 332 332 331 331 331 330 328 328 325 325 325 324 324 326 327 327 325 325 325 325 323 323 322 321 321 320 319 318 317 313 311 309 309 311 312 315 314 309 307 305 304 303 302 302 301 301 301 301
289 289 286 285 286 286 288 293 293 291 292 293 293 281 286 290 296 297 301 302 302 300 299 301 302 302 303 303 303 304 306 305 304 304 303 302 302 302 301 304 304 307 308 306 308 307 308 309 313 331 331 330 330 330 330 329 325 322 321 324 324 324 324 321 322 326 327 326 325 324 321 321 322 321 320 318 317 313 310 309 307 305 307 312 312 308 305 305 303 303 302 300 301 301 299 299 299
284 287 286 283 281 282 288 289 291 288 294 292 293 283 286 291 292 297 300 301 299 297 298 299 300 302 302 302 303 303 305 306 306 307 305 303 303 303 302 303 303 304 306 307 309 308 308 307 309 311 329 328 327 328 328 328 322 320 320 319 322 322 322 321 322 322 322 323 324 323 320 319 319 319 318 316 313 312 309 308 306 305 307 310 309 307 304 303 303 302 301 301 299 299 300 300 298
287 283 281 285 282 283 287 289 289 284 289 292 290 282 286 290 292 295 298 298 299 297 297 297 299 300 301 301 302 301 303 305 307 307 306 303 302 302 302 302 303 303 303 305 307 306 306 308 308 308 319 327 326 325 325 324 321 319 319 319 320 321 321 321 321 322 322 321 321 321 319 318 317 316 314 313 311 309 307 306 305 305 308 309 308 306 304 302 301 301 301 301 299 298 298 297 298
286 282 281 281 282 282 284 289 287 288 288 290 287 281 284 286 293 295 297 294 296 295 296 297 298 299 300 300 301 301 302 303 305 306 306 305 302 302 302 302 302 302 303 304 305 307 307 306 306 308 310 326 324 322 323 322 320 318 317 320 319 320 320 319 319 319 319 318 319 319 317 315 315 314 313 312 310 308 307 306 305 306 308 308 306 304 303 302 301 300 300 301 301 298 297 296 296
282 284 281 282 279 281 280 286 289 288 287 283 287 284 284 287 289 291 294 294 293 292 294 296 296 296 298 299 299 300 300 301 303 304 306 306 304 303 302 302 302 302 302 303 303 306 307 306 306 308 307 315 323 322 320 319 319 316 315 316 317 319 318 317 317 316 316 317 316 314 314 311 311 312 312 311 310 308 306 304 304 305 307 307 305 304 302 302 301 301 299 300 300 298 296 295 294
279 280 280 281 282 282 281 281 286 285 286 283 284 284 285 287 290 291 293 294 292 291 292 293 294 294 295 297 298 299 299 300 302 304 306 307 306 304 302 301 301 301 301 301 303 304 306 306 306 306 307 308 321 321 318 316 318 315 313 313 316 315 314 313 313 314 313 313 312 310 310 308 308 309 309 309 307 305 303 301 302 305 307 306 305 303 301 301 300 300 300 299 299 298 297 296 295
281 281 281 280 279 280 280 284 286 284 282 282 283 282 283 285 287 289 290 292 291 290 291 292 293 294 295 296 298 298 299 299 302 305 306 306 306 304 302 302 302 301 301 301 302 303 304 305 306 305 306 306 314 317 314 311 311 311 309 309 311 311 311 310 311 311 310 310 309 307 307 306 306 306 306 306 304 303 301 301 302 304 306 305 304 302 301 301 299 299 299 299 298 297 297 296 295
282 282 281 280 280 281 284 284 286 286 283 282 283 283 283 284 285 287 289 290 290 289 289 290 292 293 294 295 296 297 298 298 303 306 305 305 305 304 303 302 302 302 301 301 301 302 303 304 305 305 306 308 310 310 309 309 311 308 308 309 310 310 309 308 308 308 308 307 306 306 305 305 305 304 305 304 302 301 300 300 301 302 304 304 303 302 302 301 300 300 298 299 297 296 295 296 296
282 282 281 280 281 279 283 283 285 286 282 281 284 283 283 284 285 287 288 288 287 288 289 290 291 292 293 294 295 296 298 301 303 302 303 304 304 303 302 301 300 299 300 301 301 301 302 304 304 303 306 307 308 309 308 308 309 309 308 308 308 306 306 306 305 305 304 304 304 304 304 304 304 303 303 302 301 299 298 298 300 301 302 304 304 303 301 301 300 299 299 297 299 297 295 296 296
283 281 281 280 281 282 284 284 285 285 284 281 284 281 281 282 284 287 287 287 289 290 290 291 291 291 292 293 294 295 297 298 299 300 302 303 303 302 301 300 300 300 301 301 301 301 301 302 303 303 305 305 305 306 308 308 309 312 312 308 304 302 303 304 305 304 303 302 302 302 302 304 304 303 302 301 300 299 298 298 299 300 302 303 302 300 299 299 299 299 299 298 296 298 296 297 297
281 281 280 279 282 278 277 283 284 286 283 281 282 279 281 284 285 286 288 288 288 291 291 292 292 291 291 291 293 295 295 296 297 298 299 302 302 301 300 300 299 300 300 300 300 299 300 300 301 303 304 304 304 304 303 303 306 305 305 305 302 301 298 299 299 300 300 300 299 300 300 300 301 301 301 299 299 299 299 298 298 299 301 303 302 299 299 298 298 298 298 297 296 293 294 294 298
284 282 281 280 280 280 279 280 283 284 285 281 281 280 281 284 280 282 286 285 285 287 288 288 289 290 291 292 293 293 293 294 295 297 299 300 300 300 300 300 300 299 299 300 300 300 300 300 300 302 303 304 304 303 302 301 301 301 299 298 298 296 297 296 296 296 297 298 297 297 297 299 299 299 298 298 297 298 299 297 298 299 300 301 301 300 299 298 298 298 298 296 296 294 292 294 295
281 283 282 282 282 279 281 282 281 279 280 281 280 274 278 281 279 281 284 285 285 287 286 287 289 290 290 289 290 292 294 294 295 295 297 299 300 301 300 300 299 299 299 300 301 302 301 300 300 301 303 303 303 303 302 301 300 299 298 297 297 297 295 295 295 295 295 296 296 296 296 297 297 297 297 296 296 296 297 298 298 298 299 299 300 300 299 298 298 298 298 297 296 296 294 293 293
279 280 283 283 282 280 280 280 280 275 274 280 283 273 273 281 280 282 283 281 281 285 285 286 288 289 290 290 291 291 292 293 295 295 296 297 299 300 300 299 299 299 300 301 301 301 301 301 300 300 301 302 302 301 302 301 299 299 300 301 301 300 298 298 300 297 296 295 295 295 295 294 295 295 295 295 296 296 297 298 299 298 297 298 299 298 298 298 298 298 298 298 297 296 296 294 293
279 283 283 283 282 281 280 280 279 277 281 281 281 280 274 275 281 281 280 280 282 282 284 286 287 288 289 290 291 291 292 293 294 295 296 297 298 298 299 301 300 299 301 300 300 300 300 300 300 300 300 301 300 300 301 302 300 299 299 300 301 302 301 299 299 297 295 295 294 294 294 293 293 294 294 294 294 295 296 297 298 298 298 298 298 298 297 297 298 298 297 298 297 296 296 295 294
281 282 284 282 282 281 280 279 278 278 275 274 277 278 274 275 280 281 282 280 281 281 282 286 288 290 289 290 291 291 292 293 293 294 294 296 297 298 299 300 301 300 300 300 299 300 300 300 300 300 300 300 300 300 301 302 302 301 301 300 298 298 298 296 295 295 295 294 293 293 293 293 294 294 294 294 294 294 295 295 297 297 298 298 297 298 297 297 297 296 296 296 295 295 296 298 295
283 284 284 283 281 279 277 278 277 277 273 272 275 277 272 275 281 285 281 280 279 281 284 286 288 289 290 291 291 291 291 292 292 293 294 295 296 298 300 301 301 300 300 301 300 300 299 299 299 299 300 300 300 300 302 302 301 301 300 300 299 294 293 293 293 292 293 294 293 292 293 293 293 293 293 294 294 294 294 295 296 296 298 298 299 296 296 296 296 296 297 296 296 296 296 295 295
284 284 281 281 279 278 275 276 276 274 271 274 272 274 273 272 279 283 283 283 284 285 286 286 288 290 291 291 291 292 291 291 291 292 293 294 296 297 299 299 300 300 300 299 299 299 298 298 298 298 299 300 299 298 300 301 301 300 301 300 298 293 292 291 290 290 291 291 291 291 290 291 292 292 293 294 294 294 295 295 296 297 297 298 297 297 297 295 296 296 296 296 296 295 294 294 294
284 280 278 278 277 275 275 275 275 271 273 272 268 271 273 270 278 284 286 286 284 285 284 285 287 288 288 289 291 292 291 291 291 291 292 293 294 295 297 297 298 299 299 298 299 299 298 298 298 297 298 299 299 298 298 299 300 300 301 301 299 296 293 291 291 290 290 291 290 289 290 290 290 291 292 292 292 293 294 294 294 295 295 297 297 298 297 297 296 295 295 294 295 295 295 294 293
283 279 279 275 274 275 272 273 270 273 273 271 266 267 271 271 276 283 286 287 288 289 288 287 288 288 288 289 291 292 290 290 290 291 291 292 293 294 295 295 297 298 298 298 298 299 299 298 297 297 297 298 298 298 298 298 299 300 301 301 300 298 295 293 292 291 291 291 290 290 289 289 289 289 290 290 291 291 292 292 293 293 294 295 296 296 295 295 295 294 293 293 293 293 293 293 292
280 278 277 274 272 270 266 271 269 270 274 269 270 274 271 277 281 286 285 287 289 289 289 290 289 288 289 290 292 290 292 291 291 291 292 292 293 294 295 296 296 297 298 298 298 298 298 298 298 297 298 298 298 297 298 298 298 299 300 300 300 297 295 294 293 292 292 292 291 290 290 290 289 289 289 290 291 292 292 292 293 293 293 294 294 294 294 294 294 293 292 292 292 292 292 292 292
281 278 277 276 274 272 268 270 269 271 272 274 273 270 272 275 281 286 288 289 289 290 290 290 290 291 290 291 291 291 291 291 292 292 292 292 293 293 294 295 296 297 298 298 298 298 298 298 298 297 297 298 298 296 296 297 298 298 299 300 301 297 296 295 295 294 293 293 292 291 291 291 290 290 290 290 291 291 292 292 293 293 293 293 293 293 292 294 294 292 292 292 291 290 290 290 289
279 279 279 276 275 280 273 274 272 271 272 272 270 272 279 280 287 288 289 289 289 290 290 290 289 290 290 290 291 292 293 294 293 292 293 293 293 293 294 295 296 297 298 298 297 298 298 297 298 297 297 298 297 296 296 297 297 298 298 297 297 296 296 295 295 294 294 294 292 292 292 291 291 291 291 291 291 291 291 292 292 292 292 292 292 291 291 291 291 290 289 289 287 288 287 287 286
279 279 276 278 279 278 275 272 270 269 270 270 277 275 280 285 286 287 287 287 287 289 289 289 289 291 291 291 292 293 293 295 295 295 294 294 294 294 294 294 295 296 297 297 297 298 297 297 297 297 298 298 297 296 296 297 297 297 296 297 296 295 295 295 294 293 293 293 293 292 292 292 293 292 291 291 290 291 291 292 292 292 291 291 291 291 290 289 289 289 288 287 286 286 286 286 285
280 276 279 280 281 281 277 272 273 272 270 272 275 274 277 277 277 286 285 286 287 287 287 289 290 290 290 291 293 294 294 295 295 295 295 296 296 296 295 294 295 296 296 297 297 298 298 298 297 297 297 297 297 296 296 296 295 296 296 296 295 295 295 294 294 292 293 292 292 292 292 291 291 291 291 290 291 290 291 291 291 291 290 290 289 289 288 288 287 287 286 286 285 285 285 285 285
281 280 283 279 274 274 277 274 269 269 269 271 275 276 276 278 278 283 285 286 287 287 287 287 288 289 290 291 292 294 294 294 294 294 295 296 296 296 296 295 295 296 296 297 297 298 298 298 298 297 297 298 298 297 296 296 296 295 295 295 294 294 294 294 293 292 292 292 291 291 291 291 291 291 290 290 290 290 290 290 290 289 289 288 288 288 287 287 287 286 285 285 285 285 284 284 285
284 285 281 283 280 277 274 275 274 273 270 270 272 274 274 281 283 285 285 286 287 288 288 288 289 290 291 292 293 294 295 295 294 295 296 297 297 297 297 296 295 295 295 296 297 297 297 297 297 297 297 298 297 296 295 295 296 295 294 294 294 293 294 293 293 292 291 291 291 291 290 290 290 290 290 289 289 289 289 289 288 288 287 286 286 286 286 286 286 285 285 285 284 285 284 283 283
277 279 278 279 279 282 280 278 274 273 271 271 270 269 276 284 288 286 286 287 288 288 287 289 290 291 292 292 293 294 294 294 295 296 296 296 296 297 297 297 296 295 296 296 296 296 296 297 296 296 295 296 296 295 295 295 295 295 294 293 293 293 293 293 292 292 291 291 291 290 290 290 290 290 289 289 288 288 288 287 287 287 286 285 285 285 285 285 286 285 285 285 284 284 283 283 283
281 280 278 279 276 274 272 271 279 276 273 270 270 269 277 284 288 287 287 288 289 289 289 289 290 291 292 292 293 293 294 294 295 295 295 295 295 295 295 295 295 294 294 294 295 296 295 295 296 296 295 295 295 294 294 295 295 295 294 293 293 292 293 293 291 291 290 290 289 289 289 289 288 289 289 288 288 288 287 287 286 286 286 285 285 285 285 285 285 284 284 284 284 283 283 282 282
Wind_Speed
10 8 6 4 2 2 3 2 7 5 5 12 11 8 7 7 9 6 9 4 8 6 7 2 4 8 10 4 12 11 9 11 10 8 5 4 1 4 12 9 14 19 20 18 17 19 20 19 20 21 22 22 21 21 20 19 18 18 19 19 17 15 15 15 15 15 16 16 17 18 18 18 17 16 15 15 15 16 17 16 16 14 13 13 13 13 14 15 14 15 15 15 14 14 14 14 13
9 9 7 3 1 1 3 1 5 9 7 11 13 9 12 4 4 14 16 10 3 3 1 3 6 5 3 4 4 4 8 9 3 2 3 1 3 6 14 11 16 20 20 19 17 18 19 20 19 20 22 22 22 21 20 19 20 18 19 19 19 17 16 16 16 16 16 17 17 18 18 17 17 16 16 17 16 16 15 14 14 14 13 13 13 13 14 15 15 15 14 14 14 14 13 13 13
9 8 4 4 4 2 2 3 9 8 12 14 11 13 5 9 13 15 11 11 2 3 2 1 2 3 7 3 7 11 6 2 2 3 3 2 8 9 12 14 16 19 21 18 16 18 16 19 19 20 21 23 22 22 21 19 21 19 18 20 17 16 17 16 16 16 16 17 16 18 18 17 17 17 16 15 14 14 13 13 14 13 12 13 14 14 14 14 14 14 14 14 13 13 13 13 13
7 4 6 3 4 2 6 5 10 11 14 12 10 10 12 13 15 15 10 8 1 2 3 4 6 2 7 12 9 2 10 4 6 7 3 6 4 11 12 17 17 16 18 16 17 16 16 19 19 20 21 22 22 23 22 20 20 19 18 18 18 17 18 18 17 18 17 17 17 18 17 17 16 17 16 14 14 14 13 13 13 13 13 14 14 15 15 14 14 14 14 13 13 13 13 13 13
5 3 3 6 4 6 5 8 10 10 17 9 12 7 8 8 14 14 12 2 4 6 6 3 5 4 5 8 2 5 2 4 2 6 4 5 5 12 14 18 18 17 18 18 17 16 16 23 19 19 20 22 22 23 23 21 21 21 19 19 19 17 18 18 17 16 17 18 18 18 18 17 15 15 16 16 15 15 14 14 14 13 13 14 14 13 14 14 13 13 13 13 12 13 12 12 12
4 3 2 4 4 4 2 6 10 15 15 10 13 9 2 3 7 8 9 3 4 5 8 8 7 1 5 7 4 6 2 4 3 7 5 6 10 14 16 18 18 18 17 17 17 15 16 22 20 19 19 22 22 23 21 21 21 21 21 19 19 18 18 19 20 19 18 19 19 18 18 17 16 16 16 17 17 16 15 14 14 14 14 14 14 13 13 14 14 12 13 12 12 13 12 12 12
3 3 2 2 1 4 8 13 15 15 16 17 14 12 8 1 2 4 4 4 3 5 5 8 3 1 7 4 2 5 1 2 3 3 5 8 12 15 17 17 18 19 20 17 16 15 19 20 20 19 18 20 23 22 23 22 21 20 20 19 19 18 17 18 18 18 18 19 19 18 18 17 17 16 16 17 17 16 15 15 15 15 15 14 14 14 13 12 15 13 13 12 12 12 11 11 11
2 4 2 4 6 5 12 15 16 13 12 18 17 16 14 11 2 3 5 6 1 4 8 6 4 6 4 2 4 6 0 2 4 2 6 10 14 17 18 18 18 20 20 17 15 14 17 19 19 18 18 19 22 21 22 21 19 18 17 17 19 19 19 18 18 18 19 18 19 19 20 18 18 18 17 16 16 16 16 16 16 14 14 13 13 13 14 14 13 13 14 12 12 13 11 11 11
2 3 2 3 10 6 11 16 16 14 14 11 16 15 16 12 4 5 10 4 4 5 3 7 8 7 2 1 7 4 2 2 4 4 8 12 16 18 14 18 19 18 20 17 15 14 18 17 19 18 18 19 19 20 20 20 17 16 16 17 17 19 19 19 17 17 18 18 19 19 19 19 18 19 18 17 16 16 15 14 14 14 13 13 12 12 13 14 13 13 13 13 12 13 10 11 11
2 2 3 5 4 14 14 16 15 14 17 17 17 18 17 15 9 8 11 12 9 3 3 1 5 11 4 9 5 4 2 5 5 7 9 12 16 17 16 18 19 20 19 17 14 15 16 17 18 17 18 19 19 18 18 17 17 15 16 17 17 19 20 20 19 20 19 20 20 19 19 18 18 18 17 16 16 15 14 14 14 14 14 14 13 12 12 12 12 11 11 12 12 13 11 11 11
3 2 3 6 10 14 17 17 15 13 14 13 16 17 15 11 9 11 12 14 9 8 1 2 6 11 10 8 5 4 1 5 8 9 10 13 16 16 16 16 16 19 18 17 15 15 16 16 16 15 16 16 16 16 16 16 17 17 16 16 17 17 19 20 20 19 20 20 20 19 18 17 17 17 17 15 13 13 14 14 14 14 14 13 12 11 11 12 10 11 13 13 13 13 12 12 11
4 3 3 9 14 16 16 16 16 13 10 10 12 9 8 13 11 14 16 14 12 12 13 8 4 2 8 7 2 2 3 6 8 8 11 13 13 14 14 12 16 18 18 17 16 15 17 16 14 13 13 15 15 13 16 15 16 16 16 15 15 16 18 21 20 19 19 21 20 19 18 17 17 17 15 13 12 12 12 12 13 13 12 12 13 13 12 13 12 13 13 14 13 12 12 12 12
5 1 7 11 15 13 16 18 16 12 9 11 10 6 6 13 17 18 17 16 16 12 11 10 5 3 11 6 3 1 5 7 8 8 10 13 14 13 12 12 15 17 17 18 17 16 17 17 17 14 12 14 14 12 14 14 16 15 14 15 13 14 15 19 20 22 20 20 19 18 17 17 17 16 13 13 13 12 12 11 11 13 12 12 12 14 13 14 15 14 15 15 14 13 13 13 13
4 2 6 13 12 15 14 15 12 11 11 8 6 2 4 9 12 14 10 15 15 15 2 2 3 3 12 4 5 4 5 7 7 9 10 13 13 12 12 11 14 15 16 17 16 16 17 17 16 16 13 14 13 11 11 12 13 13 12 13 12 13 14 16 18 16 17 18 17 16 17 17 16 15 13 12 11 11 12 11 12 13 14 13 12 15 14 14 14 14 14 15 15 15 16 15 13
5 1 5 11 13 11 11 13 12 13 13 7 2 2 4 7 5 4 9 14 15 4 4 2 2 4 5 8 3 4 5 9 8 9 12 13 13 12 11 10 13 13 15 16 16 16 16 16 16 15 15 15 16 15 13 11 12 12 12 12 11 15 15 16 15 17 15 16 16 15 15 15 14 14 12 13 12 12 12 11 10 12 15 15 15 16 16 14 14 15 15 17 17 17 17 14 13
3 2 7 9 14 11 10 10 11 10 12 4 4 2 4 6 2 6 4 8 4 2 2 5 4 2 2 2 3 8 10 9 10 12 10 13 12 10 10 12 14 14 13 15 16 15 15 16 14 13 14 14 14 13 14 14 11 12 12 12 13 15 15 16 14 15 14 14 14 14 14 14 14 13 11 12 12 11 12 11 10 12 13 14 14 14 12 14 15 17 17 18 18 19 17 15 15
1 3 8 10 16 9 10 10 5 9 8 2 3 3 7 8 3 1 4 5 9 3 2 1 4 4 1 1 4 7 11 13 8 12 13 10 10 8 8 9 10 11 9 15 14 15 15 15 16 14 15 16 14 13 12 13 13 12 11 12 14 14 17 15 14 13 13 13 13 13 14 15 13 11 11 11 12 11 9 10 11 10 11 12 14 13 13 13 15 18 18 19 19 19 16 16 15
2 5 9 14 10 13 6 8 9 11 12 8 8 8 7 11 1 2 6 5 7 6 5 2 1 4 4 3 3 7 8 11 10 11 13 12 11 10 10 10 10 10 12 12 14 16 15 15 16 16 14 15 13 12 11 11 11 13 14 13 11 12 14 16 13 13 12 12 13 13 12 11 11 11 10 13 10 10 10 10 9 9 10 10 10 12 14 16 17 18 19 19 19 18 15 9 10
4 6 6 13 9 5 9 8 9 8 10 14 10 7 7 8 8 5 7 5 3 8 8 5 6 5 6 2 6 7 9 8 6 11 12 13 11 14 12 12 12 11 10 11 12 17 14 13 16 16 15 15 14 13 10 10 13 12 12 12 11 16 12 13 14 14 12 12 15 13 10 11 11 10 10 10 10 12 11 10 11 11 10 9 9 9 12 15 17 18 18 17 15 13 8 7 7
1 4 10 10 5 9 7 5 7 8 8 11 13 7 8 7 6 6 6 8 7 9 6 6 10 9 4 5 7 8 7 7 6 7 11 14 14 14 12 13 14 15 14 13 13 13 14 14 16 16 15 15 13 12 10 11 12 10 10 9 11 11 13 12 11 10 10 12 13 12 10 11 11 9 9 11 11 11 9 10 11 11 11 11 12 10 13 14 16 16 16 14 11 7 7 7 6
3 4 9 7 7 9 7 7 7 8 8 10 11 10 11 4 4 5 7 10 9 9 2 4 7 9 10 8 8 7 7 6 7 5 8 9 15 10 10 13 14 12 12 12 10 12 14 15 15 15 15 14 14 11 11 11 10 9 8 9 9 9 8 9 10 11 14 14 14 11 11 9 8 9 12 11 11 11 11 10 9 9 8 8 10 9 10 12 11 10 9 8 7 7 7 7 6
4 7 7 6 6 9 8 9 6 7 9 9 9 11 8 7 6 5 8 11 10 2 2 2 2 5 7 10 9 7 6 5 4 5 4 6 6 7 9 10 10 13 10 10 13 11 14 13 14 14 14 14 14 11 10 7 9 9 8 7 8 9 11 11 9 6 9 10 9 8 8 8 8 9 11 11 10 11 11 11 10 9 8 7 7 9 9 9 9 10 9 6 6 6 6 5 5
5 4 2 2 3 8 9 10 8 7 9 9 10 7 8 8 9 3 6 11 6 6 5 2 2 3 5 7 7 7 6 6 4 4 3 5 5 5 8 4 9 8 12 14 13 11 11 14 14 13 14 13 15 10 9 8 10 9 9 9 10 10 9 10 10 9 6 8 7 8 9 9 8 8 9 9 11 11 11 10 9 8 8 7 6 7 9 10 9 8 7 7 7 8 7 6 6
5 7 4 7 6 11 11 11 12 11 7 10 9 8 10 8 14 2 5 9 5 4 5 7 6 4 5 7 7 6 5 5 6 4 2 1 1 4 5 6 5 9 9 15 14 10 12 15 14 14 14 13 12 10 9 9 9 8 8 9 8 9 9 9 10 10 10 9 7 8 8 8 9 9 9 9 8 8 8 8 7 7 6 6 5 6 9 8 9 7 7 8 9 8 8 6 6
5 6 4 9 9 10 11 11 11 13 11 9 8 10 12 10 8 4 11 8 1 3 4 8 9 8 6 7 7 6 5 5 5 5 4 2 2 1 2 5 7 5 9 11 10 12 13 15 15 16 15 14 12 11 9 9 8 9 9 9 9 9 9 9 10 10 10 9 6 5 9 9 9 9 9 9 8 7 7 6 6 6 6 6 6 6 8 10 8 8 8 8 8 8 7 6 5
1 5 9 11 12 12 13 12 12 8 7 6 8 12 13 7 1 9 15 3 1 3 5 6 9 10 9 8 5 5 5 5 4 4 5 4 3 2 3 3 6 5 2 6 9 10 11 14 16 17 15 13 11 12 9 9 8 10 9 9 8 8 9 9 9 11 10 10 7 7 7 9 9 9 9 8 8 7 7 6 6 5 5 5 7 8 10 8 8 8 8 7 8 9 9 6 6
3 9 11 12 15 12 8 7 10 10 10 6 9 12 12 3 4 9 3 2 3 5 6 7 8 10 10 9 6 5 6 6 5 5 5 4 6 2 3 2 2 4 3 2 3 7 9 12 17 17 17 13 12 12 9 10 9 10 9 9 9 10 10 10 9 7 11 9 9 9 8 8 8 8 8 8 7 7 6 6 5 5 5 5 6 7 8 8 8 8 8 8 8 8 8 7 7
7 9 11 12 9 9 7 8 7 5 7 0 7 12 8 6 5 11 2 0 3 6 8 8 8 9 9 9 8 6 5 4 4 4 5 5 3 3 2 4 4 3 1 2 3 5 6 15 15 18 18 15 13 15 11 12 9 11 10 9 9 9 13 11 9 10 10 10 8 9 8 7 8 8 8 8 8 7 6 5 5 5 5 4 4 6 6 6 7 8 9 8 8 8 8 7 6
6 6 10 10 10 8 1 6 6 5 4 8 6 11 13 8 10 4 1 2 5 7 9 10 9 9 9 9 9 8 6 5 4 4 6 5 5 4 6 4 3 4 3 1 2 6 7 7 16 17 18 18 17 18 14 11 11 10 10 10 10 10 10 11 12 10 10 8 8 9 8 8 8 8 8 8 7 6 6 6 5 4 5 5 5 7 9 8 8 9 9 8 8 7 8 8 7
5 4 4 10 7 5 5 2 6 6 1 9 8 9 9 7 8 3 6 4 5 6 9 9 8 7 7 8 8 9 9 6 6 6 5 5 4 5 6 5 6 5 1 3 3 4 6 7 7 7 13 18 17 16 16 13 10 8 7 9 10 10 9 7 9 12 11 11 9 10 8 9 8 8 8 8 7 6 6 6 6 4 3 6 7 7 7 7 8 10 9 8 7 7 8 7 8
3 4 2 4 6 2 6 3 8 9 3 9 8 9 10 4 4 5 4 5 5 6 8 7 7 7 7 7 8 8 9 8 8 7 6 6 6 5 6 6 6 6 3 2 5 2 1 6 5 7 9 16 14 14 13 15 9 8 7 7 10 10 9 9 8 9 9 8 8 8 9 8 8 8 8 8 6 7 6 6 6 5 5 5 6 6 7 7 8 10 10 10 7 7 8 7 8
2 4 2 1 4 7 9 5 5 5 5 9 8 10 10 10 7 4 4 4 4 8 8 8 8 8 7 7 8 8 8 7 8 9 8 6 7 5 5 5 5 5 4 3 4 6 3 2 6 5 7 16 13 13 12 12 12 9 8 8 8 8 8 8 8 8 8 8 8 8 8 8 7 8 8 7 7 5 6 6 5 6 8 6 5 6 7 8 8 8 7 10 11 8 8 8 7
2 2 6 6 6 7 11 4 2 3 9 6 3 9 14 13 3 4 4 3 5 9 9 9 9 9 8 7 7 7 8 9 8 9 10 6 6 6 5 5 5 5 4 3 4 4 6 4 4 6 8 11 14 11 9 11 12 10 9 9 9 9 8 8 7 8 8 8 8 8 8 7 7 8 8 7 7 7 6 6 6 7 7 7 6 6 6 6 9 8 7 5 9 11 8 10 8
1 1 5 5 6 8 8 9 4 8 7 9 10 9 15 18 17 14 9 5 8 10 11 11 11 9 9 7 7 8 8 8 9 9 9 8 5 7 5 4 4 4 4 4 5 8 4 9 4 3 5 8 11 11 9 10 10 9 6 6 8 9 8 7 7 8 8 8 8 8 8 7 7 7 8 7 6 7 6 6 7 7 7 8 8 7 6 7 7 10 10 7 7 10 10 10 9
4 5 5 4 6 8 10 8 5 11 10 10 12 14 18 18 15 11 10 8 8 13 12 12 12 12 10 8 8 9 9 9 10 9 7 6 7 6 5 5 4 5 4 4 6 6 5 5 6 3 2 9 9 14 13 8 12 9 7 7 8 7 6 5 7 7 7 7 7 7 8 6 6 7 7 6 7 6 6 6 7 8 7 8 8 8 8 8 8 7 11 10 8 6 9 10 10
5 4 6 7 8 8 9 10 7 5 11 12 11 10 14 19 21 20 17 10 10 14 14 12 12 11 11 11 10 9 9 11 10 7 5 6 6 5 6 5 6 6 6 5 5 6 5 1 6 6 4 4 4 10 10 8 7 9 8 7 7 7 7 7 6 6 6 6 7 8 7 6 7 7 7 6 7 7 7 7 7 7 7 8 9 9 9 9 10 11 10 13 12 9 8 9 11
4 5 7 7 9 12 8 9 3 3 9 9 9 10 15 18 17 21 20 15 14 16 16 15 12 11 12 12 12 11 12 12 8 4 5 7 8 6 6 5 6 8 7 6 7 6 5 5 5 8 6 4 2 4 8 9 11 6 7 10 10 9 8 7 6 6 6 5 8 7 7 6 7 7 7 8 7 7 6 6 7 6 6 6 7 9 10 11 10 10 10 9 13 12 9 9 10
5 7 7 9 7 10 8 11 3 2 4 9 12 17 17 16 16 18 17 14 18 19 17 17 16 14 12 14 15 14 12 7 7 7 8 8 7 8 6 5 6 7 6 7 7 7 6 6 7 5 9 9 2 4 7 8 5 8 9 9 8 8 8 8 7 6 5 6 7 7 6 7 8 7 7 6 6 7 7 6 7 9 7 7 6 8 9 10 11 10 11 10 7 11 10 10 10
5 6 7 8 7 7 12 7 0 1 6 12 15 18 19 17 19 20 16 16 16 17 16 17 14 13 12 13 14 13 9 9 9 10 10 7 9 8 7 6 6 7 5 7 8 7 7 8 4 9 6 11 7 1 3 8 7 5 5 5 6 5 4 3 5 6 6 6 6 5 6 6 8 7 8 7 8 8 6 7 7 8 8 7 8 8 9 10 10 12 13 12 11 6 9 8 12
6 4 6 8 5 6 6 2 2 10 6 12 15 17 18 17 15 15 15 12 14 15 15 16 13 14 14 14 11 9 11 12 12 12 11 9 8 8 8 8 8 6 6 7 8 9 8 6 6 10 7 6 10 8 2 3 5 8 8 9 6 7 4 5 6 6 6 7 6 5 4 5 5 6 7 8 7 7 8 6 6 6 7 7 9 11 10 11 11 10 9 10 12 12 9 10 7
6 7 8 9 8 6 5 8 13 12 8 3 12 14 14 3 4 5 2 2 4 9 8 11 12 13 13 11 11 13 14 12 11 10 9 8 8 10 12 10 8 8 8 8 9 10 8 8 8 7 12 11 8 11 8 4 5 9 8 10 9 9 7 5 5 5 5 6 6 6 5 5 5 5 6 6 6 8 8 5 8 7 7 7 6 9 11 11 12 11 11 11 12 13 12 9 5
5 8 10 9 7 3 7 10 12 9 3 4 14 11 6 1 7 11 7 4 6 7 8 12 12 9 8 11 13 12 11 11 12 11 10 10 11 9 8 8 9 9 10 10 9 10 10 8 6 7 8 10 9 10 13 10 4 8 12 11 9 8 10 10 9 11 9 9 7 6 6 6 6 6 5 4 4 4 5 5 4 6 6 7 6 7 7 8 10 11 11 11 9 7 12 10 8
6 1 1 3 4 2 5 10 8 6 7 4 8 3 10 8 13 7 3 5 10 5 7 12 10 10 8 9 9 10 11 10 11 12 11 10 11 10 10 10 11 11 11 8 8 10 11 9 9 6 6 11 11 11 11 10 12 6 9 11 12 14 13 9 8 5 8 7 7 8 7 6 6 7 6 5 4 3 4 6 6 6 6 4 5 6 8 10 10 9 8 8 8 8 9 11 11
5 4 1 1 5 7 7 8 7 8 9 14 6 7 7 11 13 3 1 9 10 10 5 6 6 7 8 9 9 9 10 11 9 11 13 13 12 13 15 12 10 12 9 8 8 8 11 11 10 9 5 5 12 13 13 12 12 13 12 7 4 7 9 10 9 8 5 6 7 7 6 5 5 5 6 5 5 5 4 4 6 7 7 6 3 4 7 8 7 5 7 5 6 7 8 8 10
2 1 2 5 6 7 5 5 7 6 6 8 4 3 4 6 8 3 1 7 8 6 5 3 3 3 4 5 7 8 9 10 10 10 11 13 13 13 13 12 11 9 8 8 9 10 9 10 10 9 8 6 6 12 15 15 13 11 12 11 8 2 2 4 6 7 7 7 8 6 6 6 5 5 5 7 6 6 5 5 5 6 6 6 5 3 3 4 8 10 8 7 6 5 4 2 6
3 1 1 1 1 1 1 4 6 5 3 7 2 3 4 11 9 4 2 2 5 6 5 4 6 7 6 5 6 6 6 7 9 11 11 12 13 13 12 11 10 9 7 7 8 9 10 9 10 10 10 8 6 8 8 14 18 14 12 11 12 10 7 2 2 6 6 6 8 9 7 6 6 5 4 5 7 6 6 6 6 6 5 6 4 3 5 7 6 6 6 5 5 4 2 4 5
1 1 7 4 2 2 1 1 2 2 3 3 2 3 2 7 9 5 2 1 1 3 3 4 5 7 7 6 7 6 5 6 7 8 10 11 10 11 10 11 11 8 7 9 9 11 11 12 12 12 12 9 7 8 9 11 13 17 14 12 14 13 12 11 7 7 8 7 8 7 8 7 6 6 5 5 5 6 6 5 5 7 6 5 5 5 8 7 7 6 5 5 5 6 4 6 5
2 1 2 7 4 2 2 1 1 2 3 3 1 2 4 5 7 4 5 4 3 7 8 9 12 8 7 8 7 6 5 6 6 7 8 9 9 10 9 11 11 11 9 11 11 11 13 13 13 15 14 12 10 10 10 9 10 14 15 16 14 14 15 13 14 13 12 11 11 10 8 8 8 7 6 6 6 6 6 5 5 6 5 6 6 7 7 7 6 5 5 4 6 5 4 5 6
3 1 2 4 3 2 1 2 2 2 3 2 1 2 5 14 17 14 13 18 17 13 11 9 11 12 9 9 9 6 3 6 6 7 7 7 8 9 10 12 10 11 12 13 13 11 12 14 16 17 17 16 13 12 13 10 9 10 15 15 13 11 12 14 14 13 11 11 10 10 11 11 10 9 9 9 8 10 9 8 7 7 6 5 5 4 4 5 6 6 5 5 5 6 6 6 6
4 3 1 3 3 2 3 2 2 3 2 3 0 3 7 10 11 18 19 17 14 13 13 12 12 10 12 11 8 5 5 6 7 7 7 8 8 8 10 11 11 11 12 11 12 12 12 12 16 17 18 18 16 15 14 13 11 8 8 13 14 13 13 11 11 13 12 9 9 11 11 12 12 12 12 11 10 9 9 9 8 7 6 6 7 6 5 4 4 5 6 6 6 4 4 5 5
4 2 1 1 1 2 4 2 4 6 7 3 3 0 5 4 1 5 8 9 9 10 11 10 11 11 10 9 9 9 9 7 7 7 7 8 9 10 9 10 10 11 12 12 12 13 12 12 14 18 18 17 17 16 13 12 10 8 7 9 9 11 13 11 9 9 11 12 11 10 9 8 10 10 11 10 11 11 9 9 8 9 8 7 7 7 6 5 5 5 5 6 5 4 5 5 5
2 1 0 2 2 0 5 2 3 5 8 7 5 6 3 6 12 17 17 13 10 8 8 8 7 7 7 7 7 7 6 6 5 6 7 9 9 9 9 10 11 11 12 11 14 13 13 14 14 15 16 17 17 16 16 13 12 10 8 8 11 9 10 10 9 8 8 8 10 10 10 10 7 9 8 10 11 11 11 11 8 8 8 8 7 8 8 7 6 6 5 5 5 2 5 6 5
4 4 3 1 3 1 3 2 2 2 4 9 2 7 9 10 15 12 5 4 6 5 6 5 5 5 4 6 6 7 7 6 5 5 6 7 8 9 10 11 10 11 11 13 15 16 17 16 15 17 17 16 17 17 16 16 13 11 13 10 9 11 14 15 13 13 11 9 9 9 10 9 8 9 9 9 11 10 10 8 8 8 7 8 8 8 7 6 6 6 5 6 6 5 5 6 6
4 4 3 5 1 2 1 4 1 3 4 5 3 9 15 7 7 2 3 7 6 4 5 6 6 5 7 8 8 8 8 8 7 7 7 7 7 8 9 10 12 12 14 14 16 15 15 15 16 17 18 20 19 18 17 16 13 10 12 15 11 10 10 10 10 13 12 11 10 9 9 10 10 10 10 9 9 9 7 9 8 8 8 9 8 8 7 7 6 5 6 5 5 6 6 5 5
3 2 1 3 2 3 2 1 5 4 5 7 5 9 13 11 10 4 8 7 5 3 4 5 9 9 9 9 9 9 9 7 8 8 7 7 8 9 9 11 12 13 14 14 14 14 13 14 16 17 20 21 21 17 16 15 16 10 8 11 11 10 9 9 10 10 11 10 13 12 11 8 7 9 10 11 11 9 8 7 7 8 8 8 8 8 8 7 6 7 7 7 7 7 7 7 6
1 1 3 2 2 3 3 2 1 1 7 6 6 2 10 4 6 6 13 13 10 8 6 8 9 10 8 8 9 9 7 7 8 9 8 9 10 11 11 10 10 12 12 12 13 13 16 16 16 16 17 18 18 18 18 19 18 14 11 10 9 9 10 10 11 12 12 13 12 12 12 11 11 10 10 11 9 11 11 11 9 9 8 8 9 8 9 9 8 7 7 7 7 7 8 8 7
5 6 6 3 3 1 2 2 3 2 3 4 6 10 8 9 7 11 16 14 13 9 11 10 10 10 11 12 11 10 10 9 10 10 11 12 11 10 10 9 8 9 11 11 12 15 16 15 16 17 19 20 21 19 19 15 15 16 14 15 13 10 11 9 11 12 12 12 11 11 11 12 11 11 11 11 10 10 9 8 9 8 9 8 9 9 8 8 8 8 7 8 9 8 9 7 7
8 9 8 9 9 5 4 6 5 5 5 6 4 12 14 20 8 10 12 11 8 8 9 11 12 13 12 11 12 11 10 11 12 13 12 11 11 10 9 8 8 9 11 13 13 13 15 16 16 16 16 19 20 19 18 17 16 17 16 14 14 10 13 11 12 11 11 12 11 10 11 11 12 11 12 12 13 10 10 10 9 10 10 9 9 9 9 8 8 9 8 5 8 8 9 8 8
Wind_Direction
314 318 309 299 263 285 260 198 262 173 229 238 247 222 245 197 243 262 238 151 224 214 221 183 177 153 193 231 209 216 241 183 189 179 233 58 129 203 167 142 150 152 153 160 161 160 168 167 168 167 164 161 159 158 158 153 154 155 154 147 150 148 148 148 147 147 145 144 139 137 134 134 132 134 134 130 132 130 127 128 125 121 115 113 110 110 110 107 104 105 109 115 120 119 115 112 112
321 316 286 234 219 219 210 315 257 251 234 252 239 238 239 169 203 235 237 216 253 76 350 224 197 200 349 328 311 298 248 232 331 350 77 265 105 163 162 158 154 154 156 162 159 164 170 165 168 168 166 163 161 159 157 156 158 157 156 151 152 153 149 148 147 148 146 140 141 136 133 134 134 134 135 137 135 127 124 121 118 117 117 113 111 108 106 103 102 103 110 118 121 119 116 112 112
320 317 278 203 176 243 77 186 249 238 245 242 237 232 216 229 228 241 242 238 131 89 106 210 265 245 216 261 237 213 221 37 140 116 69 129 142 158 166 166 160 155 157 162 160 167 168 166 164 168 166 165 162 160 160 159 160 158 158 157 157 156 150 148 147 146 146 139 137 135 135 136 134 135 136 134 131 125 121 120 117 115 114 112 107 105 102 99 100 105 112 122 122 119 114 114 112
303 281 305 260 176 194 220 206 244 252 246 248 260 228 220 235 246 253 254 241 122 134 187 195 213 126 240 224 237 240 263 241 207 155 163 181 192 157 168 167 161 157 160 164 166 164 172 160 166 167 167 165 164 160 160 160 161 157 160 160 160 162 155 151 149 149 146 140 138 136 137 136 138 136 134 129 121 120 119 111 110 113 113 111 109 108 104 102 107 113 118 124 125 121 116 114 113
299 295 290 283 242 200 210 225 238 231 243 238 249 252 243 241 254 261 262 241 247 233 224 229 253 144 264 285 286 227 232 87 197 167 131 168 143 163 168 164 164 160 163 168 168 168 165 158 164 166 169 167 164 162 162 163 162 159 157 160 161 165 157 151 146 151 150 142 142 139 139 138 139 131 129 127 124 119 118 117 115 115 115 114 112 110 109 108 113 120 123 124 126 117 118 114 114
254 291 257 275 256 13 235 226 218 229 234 238 251 248 311 261 271 291 289 285 258 244 237 224 252 195 198 209 224 252 63 223 85 183 152 157 158 165 166 165 165 166 168 169 167 170 164 156 160 166 173 168 164 164 165 166 164 163 160 159 162 165 162 155 153 159 152 147 145 142 140 136 134 133 132 129 127 127 125 124 123 121 119 117 113 111 111 115 118 125 118 117 122 120 121 118 115
351 296 215 241 203 233 237 233 233 229 228 221 237 243 243 44 325 321 296 285 204 238 198 226 195 226 257 167 231 237 338 61 222 159 180 148 161 167 164 167 167 168 168 169 169 171 161 154 161 168 171 168 165 166 168 170 166 165 162 160 162 163 162 158 158 158 152 150 148 142 138 136 135 134 132 130 131 130 128 129 128 128 127 123 117 116 118 123 122 120 115 123 124 117 122 121 121
265 279 39 255 237 215 236 243 241 223 227 209 218 233 243 255 170 248 301 288 304 231 192 226 250 248 250 85 252 99 222 251 315 287 170 160 164 166 167 170 169 167 168 167 167 171 148 159 161 167 167 167 167 167 169 171 167 166 164 163 162 162 162 159 162 159 155 152 147 142 141 138 138 136 134 133 133 133 134 137 138 132 121 116 116 116 112 106 114 121 124 127 128 123 125 123 118
270 259 112 258 252 238 255 242 244 230 234 195 216 218 227 234 206 259 270 262 306 250 240 217 221 232 173 181 242 67 217 244 245 169 169 169 167 166 171 173 171 167 167 168 166 162 158 161 166 168 164 168 168 167 168 171 166 166 166 165 165 161 162 163 160 159 157 152 146 144 140 140 140 136 137 138 139 139 138 133 126 123 125 120 119 121 123 123 127 126 123 125 132 128 131 124 116
217 283 203 244 268 251 247 249 243 233 225 210 214 215 218 219 210 225 250 258 259 286 252 351 237 242 306 271 258 176 169 183 191 174 179 172 169 168 173 174 171 167 166 168 165 161 162 163 169 171 167 168 167 165 170 167 165 168 167 169 168 164 167 163 164 163 157 154 145 143 143 145 144 139 138 137 137 137 134 131 127 124 124 123 126 128 128 133 136 134 138 132 136 132 131 120 118
242 134 12 250 234 248 242 250 245 244 232 230 236 232 225 214 204 221 226 247 251 255 134 188 229 239 254 258 268 63 59 179 185 186 175 173 172 172 171 173 170 170 167 165 163 163 158 166 168 168 164 165 162 164 163 162 167 171 170 171 165 167 167 164 167 160 161 153 147 146 145 146 140 135 135 136 136 135 134 134 133 128 126 126 122 124 131 134 136 135 137 134 136 134 131 122 116
257 210 159 241 242 238 247 254 255 251 240 226 238 235 223 233 227 233 230 233 236 237 245 164 273 312 240 255 236 103 143 191 195 183 174 171 174 173 170 169 170 172 169 167 163 170 166 166 167 161 158 159 160 157 161 164 170 174 174 170 167 169 169 169 166 158 163 151 147 146 145 144 138 137 135 132 131 132 133 132 131 129 130 134 141 131 129 132 140 135 132 129 130 132 124 116 107
262 96 232 249 247 252 259 261 256 269 266 236 239 222 229 233 230 232 237 238 236 237 233 214 252 255 266 255 63 201 197 192 191 180 173 173 174 174 169 169 171 172 167 168 168 169 169 170 173 166 159 154 155 158 163 167 177 178 172 168 172 169 172 168 167 162 159 150 147 147 146 144 139 137 130 128 131 131 129 124 127 129 135 146 138 129 134 140 144 139 133 132 134 132 123 108 101
256 234 246 253 258 256 255 264 277 269 253 275 226 218 243 248 250 250 243 235 227 229 207 54 223 248 262 290 203 190 212 180 169 167 175 174 175 172 173 166 170 168 168 170 170 170 172 174 175 175 160 163 163 159 164 169 177 178 169 170 179 166 168 167 164 158 156 150 148 149 146 143 140 134 131 130 129 125 124 128 137 141 139 133 138 138 142 138 135 129 130 134 128 123 107 99 94
255 180 252 259 263 262 255 259 264 272 269 257 54 300 257 242 330 303 246 246 242 43 87 162 106 187 251 221 203 61 9 169 167 170 175 167 171 175 171 167 168 171 171 174 172 172 174 174 175 174 172 175 177 179 179 171 176 173 175 177 171 162 163 166 158 155 163 149 147 146 142 137 134 129 124 127 123 125 128 140 146 138 136 140 143 139 131 135 140 139 139 129 123 106 97 96 92
271 218 246 259 258 257 261 260 259 274 279 296 46 330 254 243 45 274 303 334 335 6 259 172 189 238 15 299 43 334 321 308 167 176 166 160 169 172 174 169 171 173 174 176 177 178 175 177 175 172 176 179 178 181 184 177 165 166 168 167 163 162 165 158 165 153 159 141 143 142 131 127 129 128 118 126 126 129 141 142 128 133 143 147 143 134 134 142 137 132 131 120 106 97 96 91 85
250 260 253 246 261 265 273 268 282 273 346 13 4 342 245 243 98 248 333 305 277 247 292 55 152 175 66 97 10 349 320 319 178 181 161 161 162 166 168 166 169 169 177 181 180 180 179 179 178 176 179 181 178 181 183 181 167 160 161 161 163 167 159 157 159 150 142 141 142 133 134 146 148 139 139 138 132 138 126 129 136 136 138 135 135 142 133 132 135 124 112 105 103 100 94 87 82
220 233 245 255 265 266 346 326 335 340 299 336 347 357 317 256 276 352 304 242 258 281 276 190 180 201 169 119 29 0 330 334 187 185 171 177 164 179 170 172 171 176 178 182 183 182 181 181 181 178 179 179 178 181 181 178 165 174 175 164 163 157 155 152 153 158 152 148 139 145 153 153 153 158 149 142 142 127 122 117 117 113 116 130 143 131 130 138 127 116 113 112 111 110 112 104 91
225 257 251 264 279 329 6 341 334 346 321 326 318 334 326 319 335 353 291 254 239 261 236 227 208 190 173 123 25 4 352 357 329 203 173 179 175 183 178 176 177 173 177 181 185 184 181 180 182 181 180 179 180 180 180 177 171 175 169 168 162 162 157 155 160 157 162 154 158 161 159 160 161 160 154 151 149 139 122 117 114 118 123 128 121 117 123 123 119 114 115 116 115 120 117 110 100
326 275 263 262 24 316 329 345 342 325 325 311 314 330 316 307 319 328 275 283 281 267 268 221 226 207 209 8 3 1 356 349 8 334 205 189 189 191 190 186 184 185 182 184 180 184 178 181 183 183 181 180 181 183 185 177 177 167 169 162 163 162 162 163 157 155 151 160 162 166 165 158 158 158 112 106 116 135 121 112 112 113 115 115 111 111 116 113 106 109 114 119 124 124 114 109 104
49 253 256 291 347 316 294 345 329 322 322 314 302 312 295 346 336 310 301 278 255 250 79 329 322 335 333 336 348 344 350 346 355 5 356 229 197 197 200 193 190 185 184 182 178 182 183 182 183 183 183 182 182 184 183 180 172 164 166 165 161 156 153 162 161 158 160 161 163 167 159 149 148 148 155 153 158 151 153 148 144 147 147 136 140 145 140 130 130 128 129 135 126 114 108 103 102
292 255 311 331 319 290 311 320 328 312 310 292 297 291 304 336 275 269 277 273 272 288 101 149 279 315 322 326 330 333 323 342 342 6 6 4 337 253 208 189 194 184 178 179 181 181 183 184 182 182 182 181 188 183 179 165 166 162 156 157 154 157 155 158 157 149 150 150 154 146 141 142 148 150 159 160 159 158 159 160 161 157 147 144 153 155 150 145 141 144 140 122 105 97 90 85 79
283 254 244 315 317 302 310 308 314 310 302 295 288 303 324 288 290 274 276 266 339 16 351 308 233 273 303 305 306 310 319 317 337 332 36 9 336 348 329 288 188 183 176 188 183 181 179 182 181 181 183 181 187 177 177 171 175 167 157 155 157 154 151 150 151 157 146 146 142 151 152 151 154 155 152 153 159 161 162 161 159 154 151 150 155 147 151 148 143 142 130 107 97 92 81 68 74
252 278 309 295 327 297 304 299 306 297 275 274 287 315 282 282 281 95 264 265 309 348 329 308 301 285 269 276 283 281 295 300 310 309 338 168 127 337 325 327 298 190 201 190 180 174 180 181 180 183 184 179 181 176 174 174 173 157 155 154 158 151 152 157 159 162 156 160 162 158 154 155 159 156 155 156 156 158 158 156 151 150 148 142 143 139 146 151 142 123 107 107 104 94 90 70 70
261 266 323 310 310 295 295 295 290 288 279 269 275 269 267 265 280 308 269 265 321 299 313 294 295 292 265 261 264 279 274 284 285 311 291 222 173 231 49 335 331 292 185 201 174 173 186 180 180 186 184 173 178 170 167 167 167 156 156 159 163 153 160 159 160 159 161 161 154 153 158 159 161 157 157 158 158 156 150 150 151 146 139 136 139 134 142 139 127 124 120 116 116 112 101 89 68
95 296 311 301 297 297 298 297 283 276 289 283 276 262 263 264 69 258 260 240 282 314 286 287 292 287 275 266 265 271 278 277 286 300 300 304 270 179 51 23 331 336 4 191 180 186 181 189 175 182 178 171 172 175 169 161 165 164 163 160 158 151 161 162 146 164 167 169 164 160 169 162 162 159 155 155 155 148 148 145 143 138 134 142 145 145 152 135 128 127 123 119 117 116 112 102 88
10 298 299 296 291 297 295 282 295 301 277 294 282 278 273 125 212 264 101 353 332 287 280 277 283 282 283 278 273 268 270 269 279 290 299 290 280 243 140 112 326 305 320 28 235 194 189 191 182 179 180 168 171 167 168 167 165 164 167 165 157 164 159 156 164 162 169 169 165 165 165 163 158 155 153 153 150 147 146 146 137 130 133 143 149 141 147 135 128 126 128 125 118 111 108 109 103
297 306 298 279 278 275 270 290 286 336 285 19 294 279 274 246 209 249 72 166 269 286 276 272 270 274 279 281 281 278 270 275 277 285 279 283 278 295 226 167 172 240 302 329 322 332 295 194 191 180 178 175 177 169 165 170 165 165 164 163 164 162 165 167 161 166 168 173 160 161 164 159 156 150 149 149 149 148 145 138 130 135 130 126 130 132 113 104 112 106 102 102 103 105 104 99 92
303 314 299 307 296 289 76 322 327 343 280 348 330 290 257 188 233 210 277 241 257 265 275 272 268 269 271 278 278 277 274 279 267 252 261 269 285 291 294 300 272 187 175 193 356 337 330 246 197 189 176 172 177 181 175 170 170 161 164 168 164 161 169 167 171 171 172 163 157 163 161 158 157 153 151 145 143 142 135 131 123 116 124 131 118 106 103 105 102 102 94 96 98 97 99 102 92
276 224 293 301 304 268 31 328 328 308 257 347 344 271 267 222 211 221 204 223 244 262 264 264 264 261 265 264 269 273 273 275 264 254 238 251 248 263 269 283 275 305 222 136 66 8 333 317 328 218 183 175 172 180 179 177 164 149 162 164 167 165 170 161 159 176 175 173 165 162 158 159 160 154 150 146 146 135 135 128 128 117 123 125 122 116 108 112 118 116 117 105 108 109 104 105 105
327 336 246 294 316 315 48 54 337 319 80 345 330 275 280 155 171 170 179 219 236 263 269 273 267 262 262 260 262 264 266 256 264 268 254 234 236 237 248 271 287 294 299 226 144 159 308 328 318 322 203 176 160 175 179 178 150 156 161 154 166 171 169 167 161 159 161 160 156 159 158 157 155 148 148 146 142 140 142 133 133 136 137 134 129 128 123 122 125 128 132 123 114 107 109 104 99
358 289 265 297 302 302 334 114 19 343 336 331 314 270 268 282 291 166 183 206 235 255 265 272 268 266 262 263 262 265 267 265 264 264 256 245 250 249 239 240 260 283 299 285 295 151 128 13 324 334 274 173 169 167 167 156 154 159 163 165 165 169 161 162 162 159 156 155 160 158 157 153 152 148 147 147 139 143 142 139 138 136 142 140 123 123 126 129 127 127 129 133 125 116 115 105 99
112 343 305 312 309 316 320 137 126 10 318 306 358 292 307 294 329 171 207 262 262 258 257 262 269 265 258 254 258 265 268 263 253 249 251 233 234 244 241 244 233 251 279 283 272 255 138 118 10 332 324 192 166 160 164 156 152 161 164 168 167 167 164 158 157 154 153 154 159 162 159 155 156 152 151 153 141 145 144 137 137 142 144 139 128 126 131 130 133 128 128 121 129 129 120 112 103
184 56 301 291 287 314 299 329 125 346 333 301 296 280 273 281 283 275 253 258 268 263 257 255 262 264 258 250 250 251 261 266 258 250 241 227 228 233 250 248 239 241 247 256 266 281 227 129 125 339 341 291 172 158 161 158 153 146 145 152 157 165 161 156 153 154 156 157 157 155 153 150 156 151 153 154 143 140 135 129 137 147 142 139 137 139 131 131 132 135 127 120 123 125 127 124 114
302 315 314 293 288 271 284 303 5 347 317 294 292 278 278 281 289 280 272 241 248 263 262 258 257 259 259 253 246 243 250 256 258 252 235 220 222 219 236 256 256 239 250 246 259 262 292 129 133 109 27 323 209 166 159 145 146 139 137 141 158 156 146 143 149 154 153 150 147 135 142 146 143 146 150 147 139 134 126 129 142 154 150 144 141 137 138 140 132 135 133 127 118 115 126 125 120
275 284 295 290 291 297 289 297 323 18 314 301 287 288 296 295 292 289 288 275 254 265 268 259 250 251 253 253 248 244 237 244 252 249 215 229 218 199 204 215 239 239 227 232 251 247 233 259 114 110 94 343 281 152 155 157 131 143 142 142 152 156 155 150 152 149 145 145 133 141 143 142 146 146 149 143 133 135 135 144 147 157 156 148 142 144 149 153 146 137 134 132 123 110 113 122 124
279 259 264 272 281 281 277 282 266 354 303 276 286 276 277 278 275 280 282 280 269 265 261 255 245 238 242 244 244 242 238 237 236 225 219 225 219 204 196 198 220 230 228 220 228 246 244 187 152 124 118 60 8 126 146 156 162 141 147 162 165 162 161 150 146 143 145 131 137 139 140 145 142 140 147 148 143 136 133 138 143 154 153 153 147 150 149 147 145 138 130 131 133 129 127 134 129
260 279 272 281 271 279 289 291 335 302 4 286 290 287 273 270 272 273 273 266 263 261 260 255 247 234 236 239 242 237 238 231 227 241 229 217 210 204 205 211 214 218 218 221 222 235 251 230 146 134 132 103 359 166 151 142 164 177 167 160 155 154 148 156 150 145 136 132 135 132 137 137 144 150 149 146 133 140 139 146 156 157 159 157 141 135 140 140 141 140 138 129 140 138 138 149 148
242 267 290 287 281 288 276 273 308 227 296 287 305 301 285 273 274 269 256 254 255 256 254 259 260 249 232 236 241 240 232 231 225 230 231 212 202 195 201 218 223 228 222 218 223 224 248 269 162 140 137 137 133 332 217 159 151 139 160 141 119 97 64 97 121 123 124 125 123 119 124 142 151 153 152 146 146 152 143 151 159 157 161 152 139 136 138 146 152 152 155 146 142 135 136 156 164
257 259 264 273 337 348 316 173 2 321 297 296 310 296 285 276 257 265 273 257 256 261 262 262 262 256 246 241 243 244 240 238 230 221 220 218 204 194 202 212 216 214 220 220 217 213 223 247 256 144 142 139 142 132 49 19 79 87 83 98 89 98 111 77 83 99 112 115 120 119 114 136 144 145 149 146 144 155 163 159 150 157 156 157 155 152 157 158 159 159 157 151 141 137 155 171 181
230 248 269 275 292 290 274 303 317 299 266 276 300 290 273 290 318 299 136 200 259 265 267 268 259 247 254 257 255 245 247 247 248 243 229 218 204 207 206 205 198 203 215 216 211 212 203 210 260 188 146 154 155 138 120 97 92 91 88 79 89 89 84 103 119 125 136 133 132 137 131 126 132 137 142 144 145 161 168 155 164 163 157 162 157 158 164 167 167 166 162 156 163 152 157 165 173
264 235 243 275 306 292 292 306 322 317 295 78 9 335 308 127 290 281 293 287 273 276 271 266 263 249 222 236 243 251 249 246 251 251 243 226 223 223 216 208 199 201 211 213 205 210 204 193 201 264 162 144 154 158 144 139 125 137 137 137 152 160 155 166 175 167 164 164 157 128 119 125 132 133 132 119 110 132 150 159 154 153 157 160 164 162 158 152 165 169 171 164 159 165 152 152 158
287 36 221 272 282 293 294 311 328 308 315 352 10 293 288 312 300 316 334 315 295 283 254 268 267 262 249 239 241 241 241 239 234 240 243 237 228 224 223 214 209 209 214 203 200 209 207 196 186 213 253 155 152 154 159 148 144 153 166 169 173 175 173 183 163 141 147 134 131 138 133 125 129 133 123 120 127 114 126 144 149 155 124 150 149 148 159 170 169 170 165 165 162 151 153 154 162
270 66 112 304 278 285 302 306 293 277 312 293 250 235 274 304 301 78 208 320 311 319 308 268 262 258 247 249 247 240 240 240 237 232 232 231 228 219 225 219 207 211 204 183 196 204 208 207 192 186 231 238 162 159 161 163 162 166 167 180 185 191 184 169 157 138 90 116 124 126 125 119 116 126 130 124 124 130 136 135 141 153 166 176 157 164 162 165 158 133 159 155 136 159 166 160 157
1 64 318 297 305 309 304 293 293 302 322 309 135 226 246 255 272 168 335 313 318 302 277 296 287 259 252 255 247 242 239 240 236 236 234 233 229 226 226 224 217 209 193 186 187 202 206 207 208 197 197 250 230 174 168 168 167 171 175 166 149 61 25 130 121 133 134 141 127 127 127 127 121 114 126 135 134 137 140 144 140 152 164 174 176 159 125 128 150 158 160 159 168 159 179 103 149
92 50 203 267 325 148 345 289 289 297 310 280 135 206 276 292 281 298 125 214 266 256 272 282 293 297 289 280 270 249 246 245 242 239 242 237 233 232 227 229 224 207 193 175 176 195 203 206 205 209 208 209 248 219 203 186 166 163 170 177 166 143 120 57 100 133 143 142 140 142 136 134 133 127 113 124 136 137 139 140 145 154 158 163 166 143 144 150 152 147 143 145 127 123 106 129 161
116 299 292 251 202 250 62 316 283 258 237 251 92 252 301 304 290 281 296 290 252 305 286 290 288 285 281 267 267 265 247 239 235 240 239 240 240 240 233 226 225 212 191 187 184 189 195 199 202 203 210 208 199 231 220 220 189 163 169 171 162 149 144 146 154 146 148 146 148 144 143 140 139 135 131 126 124 131 130 130 135 129 138 150 155 152 163 164 149 138 121 115 127 143 146 142 151
311 340 327 297 217 163 178 173 209 263 262 94 288 249 258 261 280 259 223 254 227 269 287 292 293 292 288 286 280 270 252 241 240 241 241 236 236 233 232 237 227 213 198 199 197 189 195 196 197 200 203 203 203 200 230 230 234 181 160 167 173 169 158 160 168 172 172 164 159 153 145 140 144 146 148 143 140 133 126 119 118 123 139 148 150 133 135 144 138 133 141 137 132 123 120 143 151
214 226 250 312 307 294 246 175 252 192 310 112 70 252 288 225 239 273 290 287 285 279 281 278 277 281 282 276 268 259 231 238 237 235 233 228 226 224 223 231 225 218 210 203 198 190 190 198 198 197 199 197 195 195 203 225 223 225 167 166 167 173 180 170 169 168 173 169 163 159 162 160 155 155 167 162 163 153 149 146 148 150 145 133 129 125 129 137 147 151 147 142 151 159 162 155 164
175 212 198 286 310 352 292 301 237 276 171 145 154 199 248 274 274 253 258 261 266 279 280 270 268 268 272 273 279 280 251 240 235 233 230 228 223 224 221 220 218 217 214 206 205 200 198 198 200 202 204 195 192 194 196 201 217 225 204 164 168 170 175 175 175 172 172 173 176 172 172 170 169 171 166 167 160 152 158 152 152 151 147 141 143 140 135 139 143 149 150 152 156 149 138 156 144
169 55 239 309 278 291 305 309 307 318 303 282 152 240 254 319 335 162 248 287 283 273 264 261 259 263 267 275 283 279 273 253 230 232 233 230 226 222 221 219 221 221 209 200 201 206 206 204 203 203 204 199 194 191 192 193 193 208 219 175 168 172 171 173 176 176 173 174 173 170 174 170 172 167 166 157 160 161 154 155 156 153 152 150 147 143 145 152 164 159 157 144 140 142 142 136 133
91 132 48 213 223 283 251 8 288 314 327 293 177 226 263 251 302 297 297 293 286 275 258 250 251 249 251 271 267 265 261 251 207 216 227 230 228 220 219 217 216 218 211 199 199 201 204 212 212 208 200 196 197 193 195 195 189 181 198 191 171 166 169 162 157 168 178 172 171 175 171 170 166 158 162 160 165 165 163 159 152 148 151 148 149 150 155 161 161 155 140 136 124 105 130 128 126
144 174 209 122 43 244 292 175 173 217 220 251 224 276 257 265 265 269 293 288 265 257 250 239 237 236 237 249 254 257 259 263 245 220 222 230 219 215 217 217 215 213 207 202 203 199 201 205 211 215 212 205 199 197 194 194 191 186 185 185 180 172 176 175 169 170 172 171 171 175 173 166 149 163 163 167 163 166 159 148 147 148 148 145 146 146 147 146 149 145 141 134 132 139 126 129 130
125 225 132 99 342 351 275 303 251 250 261 279 165 270 296 351 311 125 266 255 260 247 259 250 242 247 260 257 257 258 254 250 255 254 247 240 234 226 215 216 216 210 207 208 207 205 204 199 201 206 207 204 202 196 193 192 186 181 187 186 175 181 178 166 156 158 161 164 173 171 167 166 172 164 161 162 161 158 145 150 147 152 147 147 145 141 142 140 135 124 122 119 126 132 123 122 132
296 6 79 224 183 194 133 268 293 319 285 300 256 281 273 248 259 293 286 290 288 196 207 245 267 264 257 256 254 250 250 255 252 246 241 243 246 239 224 220 218 217 212 209 206 201 200 203 202 199 206 206 201 195 191 190 190 183 173 180 166 167 172 165 160 152 155 162 175 176 174 164 147 158 158 163 160 156 159 147 147 146 148 144 142 144 144 139 136 131 138 136 140 140 138 138 139
321 90 172 27 303 251 170 242 336 140 287 327 282 19 283 201 221 239 278 276 283 291 276 276 281 278 280 293 291 280 268 252 244 245 251 256 253 251 244 227 219 216 217 214 206 197 200 200 198 199 208 212 202 195 191 190 188 184 167 165 169 167 171 167 161 157 158 169 174 175 172 167 171 165 166 160 159 166 164 159 156 150 143 141 146 148 149 147 147 146 147 146 152 147 140 138 137
175 202 208 168 203 8 297 278 215 234 281 280 290 307 283 276 223 251 261 266 274 282 287 291 290 293 292 285 278 274 271 263 256 260 270 270 263 252 243 243 239 230 219 212 204 201 202 197 197 195 200 203 202 198 193 190 185 186 166 172 172 167 171 166 160 161 160 163 164 168 173 170 162 174 162 164 162 167 163 149 143 146 147 148 150 149 150 149 152 150 149 146 148 150 143 140 139
175 181 200 184 166 179 197 252 177 232 213 241 259 274 288 278 277 234 254 270 269 273 266 267 269 274 276 272 268 266 265 259 263 271 274 265 256 254 253 254 258 253 239 222 210 206 201 198 196 193 197 206 203 198 191 190 189 187 171 170 169 163 176 169 169 169 171 173 169 163 160 159 166 165 166 165 168 164 161 155 150 152 152 153 152 150 151 153 148 147 144 143 150 149 144 140 142